Location: Stilling
(56.0622°N, 9.9882°E)
Time: 13:03:21
(UTC+00:00)

Cosmos 1933 - Pass Details

Date: 13 July 2020
Orbit: 547 x 563 km, 82.5° (Epoch: 06 August)

Event Time Altitude Azimuth Distance (km) Brightness Sun altitude
Rises 21:31:34 0° 348° (NNW) 2,737 8.7 -8.6°
Reaches altitude 10° 21:33:45 10° 350° (N) 1,840 7.4 -8.7°
Maximum altitude 21:37:48 75° 76° (ENE) 577 3.4 -9.0°
Enters shadow 21:41:28 12° 163° (SSE) 1,683 5.1 -9.2°
